[[{"header":{"parameterUnit":"m.s-1","parameterCategory":1,"la1":30.2991,"la2":30.254,"lo1":-89.0895,"lo2":-89.0444,"dy":0.0017,"dx":0.0017,"nx":28,"ny":28,"refTime":"2025-05-30T09:00:00:Z","depth":0,"parameterNumber":2,"parameterNumberName":"U-component_of_WINDS"},"data":[0,0,0,0,0,0,0,0,0,0,0,0,0,0,0,0,0,0,0,0,0,0,0,0,0,0,0,0,0,0,0,0,0,0,0,0,0,0,0,0,0,0,0,0,0,0,0,0,0,0,0,0,0,0,0,0,0,0,2.3844,2.3845,0,2.3916,2.3916,2.3917,2.3844,2.3841,2.3838,2.3836,2.3909,2.3913,2.3918,0,0,0,0,0,0,0,0,0,0,0,0,0,2.3643,2.3647,2.3844,2.3845,2.3846,2.3915,2.3916,2.3917,2.3844,2.3841,2.3838,2.3834,2.3907,2.3912,2.3918,0,0,0,0,0,0,0,0,0,0,0,0,0,2.3724,2.3648,2.3844,2.3818,2.3816,2.3915,2.3916,2.3918,2.3845,2.3841,2.3837,2.3833,2.3905,2.3912,2.3919,2.4047,0,0,2.394,2.3943,0,0,0,0,0,0,0,0,2.3719,2.3731,2.3821,2.382,2.3818,2.3866,2.3872,2.3961,2.3846,2.3834,2.3835,2.3831,2.3898,2.3905,2.3928,2.405,2.4053,2.394,2.3945,2.3948,2.395,0,0,0,0,0,0,0,2.3714,2.3728,2.3872,2.3822,2.3821,2.3802,2.3809,2.3889,2.3889,2.3835,2.383,2.3839,2.3896,2.3922,2.3929,2.4055,2.394,2.3946,2.3951,2.3953,2.4283,2.4288,0,0,0,0,0,0,2.3711,2.3724,2.387,2.3874,2.3757,2.3809,2.3817,2.3855,2.3888,2.3889,2.3843,2.3836,2.3912,2.3921,2.3931,2.4082,2.3948,2.3954,2.3958,2.4279,2.4284,2.4289,0,0,0,0,0,0,2.3707,2.3725,2.3867,2.3798,2.3814,2.3817,2.3861,2.3859,2.3884,2.3894,2.3894,2.3869,2.3909,2.3922,2.4018,2.4084,2.3957,2.3963,2.4273,2.4281,2.4287,2.4386,0,0,0,0,0,0,2.3702,2.3724,2.3773,2.3799,2.3818,2.3954,2.3865,2.3863,2.3896,2.3887,2.3918,2.3919,2.3906,2.4008,2.4025,2.4091,2.3969,2.4267,2.4277,2.4285,2.4377,2.4395,2.4411,0,0,0,0,0,2.3695,2.3799,2.3776,2.3794,2.388,2.3958,2.3968,2.3952,2.3902,2.3951,2.3957,2.3918,2.4074,2.4019,2.4037,2.4106,2.4263,2.4274,2.4284,2.4369,2.4392,2.4411,0,0,0,0,0,0,2.3781,2.3802,2.3777,2.3892,2.3924,2.3945,2.4007,2.3977,2.4023,2.4013,2.399,2.3998,2.41,2.4113,2.4051,2.4231,2.416,2.4175,2.4219,2.424,2.4257,2.4252,2.3974,0,0,0,0,0,2.3813,2.3874,2.3889,2.399,2.4007,2.4004,2.4037,2.4022,2.4053,2.4066,2.4079,2.4111,2.4167,2.4204,2.4257,2.4378,2.4383,2.4435,2.4452,2.4466,2.4478,2.4542,2.4564,2.4324,2.4324,2.4323,0,0,2.388,2.3899,2.394,2.4007,2.403,2.4093,2.4016,2.4087,2.4133,2.4077,2.4168,2.4179,2.4213,2.4322,2.4371,2.4336,2.4546,2.4479,2.449,2.4495,2.4555,2.4578,2.4598,2.4331,2.4329,2.4328,0,0,2.4035,2.4057,2.4142,2.4166,2.42,2.4198,2.4218,2.4244,2.4249,2.434,2.4299,2.4354,2.4451,2.4476,2.4502,2.4665,2.463,2.4683,2.4772,2.4834,2.4853,2.487,2.4927,2.4948,2.4695,2.4696,2.4696,0,2.4115,2.4209,2.4189,2.4263,2.4293,2.4245,2.433,2.4354,2.4404,2.4426,2.4386,2.4506,2.4525,2.4639,2.4678,2.4701,2.4723,2.4679,2.4852,2.4869,2.4884,2.4938,2.4959,2.4702,2.4701,2.47,2.47,0,2.4304,2.437,2.4435,2.4484,2.4521,2.46,2.4592,2.4632,2.4613,2.4614,2.4707,2.4729,2.4784,2.481,2.4792,2.4921,2.4898,2.4856,2.4784,2.4913,2.4963,2.4984,2.471,2.4708,2.4706,2.4705,0,0,2.4516,2.4552,2.4576,2.4596,2.4631,2.4681,2.4757,2.481,2.4845,2.4881,2.4943,2.5026,2.4987,2.5016,2.5001,2.5056,2.5181,2.5006,2.5007,2.5037,2.5322,2.5353,2.5377,2.5159,2.5163,2.5166,2.5319,0,2.4671,2.4803,2.4787,2.4913,2.4973,2.4927,2.4993,2.5021,2.5024,2.5074,2.5077,2.5136,2.5081,2.5097,2.515,2.5155,2.5238,2.5144,2.5216,2.5219,2.5208,2.5403,2.5436,2.558,2.5338,2.5342,2.5344,0,2.4869,2.4911,2.5044,2.5067,2.5091,2.5151,2.5197,2.5247,2.5277,2.5275,2.5307,2.5282,2.5357,2.5285,2.5387,2.5324,2.5352,2.5359,2.5364,2.5369,2.5289,2.5413,2.5625,2.5647,2.5375,2.5373,2.537,0,2.5008,2.5098,2.5189,2.5208,2.5238,2.5281,2.5295,2.532,2.5353,2.5394,2.5414,2.5464,2.549,2.5529,2.5517,2.5466,2.5622,2.5549,2.5621,2.5622,2.5656,2.5654,2.5875,2.5676,2.5676,2.5676,2.5675,0,2.5182,2.5265,2.5251,2.5307,2.5397,2.5377,2.5467,2.5476,2.5499,2.5554,2.5518,2.5571,2.5552,2.5604,2.5595,2.5681,2.5694,2.5693,2.569,2.5696,2.5696,2.5714,2.5703,2.5681,2.568,2.5679,2.5678,0,2.5353,2.5348,2.5443,2.5463,2.5469,2.5535,2.5552,2.5603,2.5603,2.5674,2.5689,2.5689,2.5747,2.5739,2.5805,2.5799,2.5905,2.589,2.5895,2.5891,2.5963,2.5956,2.6203,2.6233,2.6017,2.6019,2.602,0,2.5464,2.5526,2.5552,2.5587,2.5604,2.566,2.5693,2.5675,2.5711,2.5748,2.5795,2.5851,2.5894,2.599,2.5995,2.6044,2.603,2.6113,2.6037,2.604,2.6029,2.6025,2.603,2.6127,2.613,2.6132,2.6133,0,2.5661,2.5655,2.5703,2.5751,2.5791,2.5827,2.586,2.589,2.5876,2.5917,2.5976,2.601,2.6076,2.6131,2.6177,2.6191,2.616,2.6157,2.6176,2.6183,2.6182,2.6182,2.5934,2.6152,2.615,2.6148,2.6147,2.6147,2.5805,2.5857,2.5883,2.5938,2.596,2.5991,2.604,2.6046,2.6095,2.6147,2.6134,2.62,2.6227,2.6286,2.6305,2.6356,2.6325,2.6354,2.6361,2.6367,2.6375,2.6175,2.6365,2.6364,2.6364,2.6363,2.6363,0,2.5998,2.6012,2.6063,2.6109,2.6152,2.6119,2.6153,2.6191,2.625,2.6277,2.632,2.6387,2.644,2.6449,2.6499,2.6538,2.6525,2.6552,2.6548,2.6552,2.6401,2.6378,2.6562,2.6562,2.6562,2.6562,2.6562,2.6562,2.6104,2.619,2.6187,2.6283,2.6297,2.6361,2.6383,2.6412,2.6433,2.651,2.6553,2.6559,2.6578,2.6629,2.6675,2.6676,2.6696,2.6728,2.6724,2.6582,2.6563,2.6544,2.6522,2.6733,2.6733,2.687,2.6872,2.6873]},{"header":{"parameterUnit":"m.s-1","parameterCategory":1,"la1":30.2991,"la2":30.254,"lo1":-89.0895,"lo2":-89.0444,"dy":0.0017,"dx":0.0017,"nx":28,"ny":28,"refTime":"2025-05-30T09:00:00:Z","depth":0,"parameterNumber":3,"parameterNumberName":"V-component_of_WINDS"},"data":[0,0,0,0,0,0,0,0,0,0,0,0,0,0,0,0,0,0,0,0,0,0,0,0,0,0,0,0,0,0,0,0,0,0,0,0,0,0,0,0,0,0,0,0,0,0,0,0,0,0,0,0,0,0,0,0,0,0,0.3125,0.3125,0,0.3115,0.3115,0.3115,0.3056,0.3054,0.3053,0.3051,0.3044,0.3045,0.3046,0,0,0,0,0,0,0,0,0,0,0,0,0,0.3092,0.3093,0.3125,0.3125,0.3125,0.3115,0.3115,0.3115,0.3056,0.3054,0.3052,0.3051,0.3043,0.3045,0.3046,0,0,0,0,0,0,0,0,0,0,0,0,0,0.3097,0.3093,0.3125,0.3094,0.3091,0.3115,0.3115,0.3115,0.3056,0.3054,0.3052,0.305,0.3043,0.3045,0.3046,0.31,0,0,0.3051,0.3052,0,0,0,0,0,0,0,0,0.3097,0.3098,0.3099,0.3096,0.3093,0.3084,0.3101,0.311,0.3057,0.307,0.3051,0.3049,0.3059,0.3059,0.3062,0.31,0.31,0.3052,0.3053,0.3053,0.3054,0,0,0,0,0,0,0,0.3097,0.3098,0.3121,0.3099,0.3095,0.3081,0.3079,0.3102,0.3077,0.3068,0.3064,0.3063,0.3057,0.3061,0.3062,0.3099,0.3052,0.3053,0.3054,0.3055,0.3179,0.3181,0,0,0,0,0,0,0.31,0.3099,0.3122,0.3121,0.309,0.3083,0.3081,0.3089,0.3076,0.3072,0.3065,0.3061,0.3059,0.306,0.3061,0.3123,0.3053,0.3055,0.3056,0.3177,0.3179,0.3182,0,0,0,0,0,0,0.31,0.3103,0.3122,0.3108,0.311,0.3086,0.3096,0.309,0.3094,0.3074,0.3069,0.3074,0.3057,0.3059,0.309,0.3122,0.3056,0.3057,0.3174,0.3177,0.3181,0.3247,0,0,0,0,0,0,0.3099,0.3103,0.3124,0.3109,0.3111,0.3152,0.3098,0.3092,0.3097,0.3091,0.3081,0.3077,0.3056,0.3088,0.3092,0.3123,0.3059,0.3171,0.3176,0.318,0.3242,0.3253,0.3262,0,0,0,0,0,0.3098,0.3144,0.3125,0.3128,0.3136,0.3154,0.3154,0.3128,0.31,0.312,0.3107,0.3077,0.3117,0.3092,0.3096,0.3128,0.3169,0.3174,0.3179,0.3238,0.3251,0.3261,0,0,0,0,0,0,0.3164,0.3142,0.3121,0.3163,0.316,0.3143,0.3169,0.3143,0.3149,0.3143,0.3111,0.3109,0.3146,0.3139,0.3112,0.3178,0.3138,0.3144,0.3181,0.3193,0.3203,0.3204,0.306,0,0,0,0,0,0.3183,0.3199,0.3179,0.3218,0.3217,0.3193,0.32,0.318,0.3176,0.3175,0.3164,0.3163,0.3174,0.3183,0.3193,0.324,0.3237,0.3264,0.3274,0.3282,0.3288,0.3311,0.3323,0.3199,0.3198,0.3198,0,0,0.3224,0.3213,0.3226,0.3231,0.3226,0.3244,0.3193,0.3214,0.3226,0.3179,0.3208,0.3199,0.3195,0.3234,0.3251,0.323,0.3321,0.3288,0.3295,0.3296,0.3317,0.3329,0.334,0.3202,0.3201,0.3201,0,0,0.3306,0.33,0.3331,0.3327,0.3321,0.3304,0.3311,0.3298,0.329,0.3318,0.3282,0.3296,0.3318,0.3316,0.3318,0.3396,0.3369,0.34,0.3451,0.3474,0.3484,0.3492,0.352,0.353,0.3406,0.3406,0.3406,0,0.3358,0.3382,0.3351,0.3373,0.3376,0.3332,0.3363,0.3361,0.3359,0.3362,0.3338,0.3363,0.3357,0.3395,0.3413,0.3416,0.3424,0.3402,0.3485,0.3493,0.35,0.3527,0.3537,0.341,0.3409,0.3409,0.3409,0,0.3445,0.3462,0.3488,0.3485,0.3491,0.3518,0.3491,0.35,0.3479,0.3464,0.3492,0.3483,0.349,0.3497,0.3477,0.3531,0.3518,0.349,0.3449,0.3517,0.3541,0.355,0.3415,0.3414,0.3413,0.3412,0,0,0.3572,0.3549,0.3559,0.3557,0.3545,0.3558,0.3582,0.3587,0.3595,0.3594,0.3614,0.3631,0.3604,0.3606,0.3585,0.3605,0.3667,0.3574,0.3574,0.3592,0.3726,0.3748,0.376,0.3648,0.365,0.3652,0.3726,0,0.3651,0.3691,0.3662,0.3707,0.3722,0.3678,0.3699,0.3694,0.368,0.3691,0.3676,0.3689,0.3652,0.3653,0.3671,0.3656,0.3694,0.365,0.3666,0.3667,0.367,0.3773,0.3796,0.3868,0.3735,0.3737,0.3738,0,0.3749,0.3751,0.3797,0.378,0.3785,0.3804,0.3806,0.3816,0.3809,0.3797,0.3798,0.3771,0.3793,0.3751,0.3781,0.3752,0.3756,0.375,0.3752,0.3753,0.3708,0.3778,0.389,0.3901,0.3753,0.3751,0.375,0,0.3837,0.3851,0.3879,0.3878,0.386,0.3874,0.3867,0.3857,0.3861,0.3862,0.3865,0.3869,0.3871,0.3875,0.3849,0.3821,0.3882,0.3838,0.3873,0.3874,0.3889,0.3889,0.4005,0.3891,0.3891,0.3891,0.389,0,0.3929,0.3959,0.3918,0.3936,0.3968,0.3934,0.3966,0.3954,0.3946,0.396,0.3923,0.3938,0.3902,0.3913,0.3893,0.392,0.3921,0.3912,0.3907,0.3916,0.3918,0.392,0.3915,0.3893,0.3893,0.3892,0.3892,0,0.4034,0.4008,0.4036,0.4015,0.401,0.4034,0.4016,0.4031,0.4013,0.4032,0.4035,0.4008,0.4018,0.3992,0.3999,0.3985,0.4024,0.4011,0.4027,0.4023,0.4059,0.4057,0.4181,0.4196,0.4073,0.4074,0.4075,0,0.4095,0.4116,0.4097,0.4103,0.4097,0.4109,0.4112,0.4079,0.4084,0.4076,0.4092,0.4099,0.4103,0.4121,0.4103,0.4107,0.4093,0.4137,0.4094,0.4102,0.4094,0.4094,0.4096,0.4146,0.4148,0.4149,0.415,0,0.4206,0.4191,0.4197,0.4198,0.4203,0.4203,0.42,0.4207,0.4171,0.4179,0.4188,0.4191,0.4197,0.4204,0.4204,0.4196,0.4168,0.4163,0.4171,0.4182,0.4191,0.4186,0.4052,0.4161,0.416,0.4159,0.4158,0.4158,0.4291,0.4307,0.4295,0.4303,0.4296,0.4294,0.4307,0.429,0.4297,0.4298,0.4278,0.4291,0.4281,0.4278,0.4273,0.4283,0.4263,0.4275,0.4279,0.4282,0.4288,0.4188,0.4283,0.4282,0.4282,0.4282,0.4281,0,0.44,0.439,0.4397,0.4393,0.4398,0.4368,0.4362,0.4369,0.4381,0.4374,0.4378,0.4388,0.4394,0.4374,0.4377,0.4389,0.4376,0.4391,0.439,0.4389,0.4306,0.4298,0.4402,0.4402,0.4402,0.4402,0.4402,0.4402,0.4458,0.4484,0.4468,0.4489,0.4478,0.4491,0.449,0.4487,0.448,0.4493,0.4497,0.4484,0.4471,0.4473,0.4477,0.4471,0.4474,0.4494,0.4484,0.4407,0.4395,0.4384,0.4377,0.4495,0.4495,0.4566,0.4566,0.4567]}]]